Ankara, Turkey

4:24 PM +03 on February 21, 2017 (GMT +0300)
Esenboga

Weather History for LTAC - September, 2012

Change the Weather History Date:

Sunday, September 23, 2012

  Actual Average Record
Temperature  
Mean Temperature 58 °F -  
Max Temperature 74 °F 66 °F 86 °F (2000)
Min Temperature 41 °F 40 °F 36 °F (2013)
Degree Days  
Heating Degree Days 8    
Growing Degree Days 8 (Base 50)    
Moisture  
Dew Point 39 °F    
Average Humidity 50    
Maximum Humidity 87    
Minimum Humidity 19    
Precipitation  
Precipitation 0.00 in - - ()
Sea Level Pressure  
Sea Level Pressure 30.14 in    
Wind  
Wind Speed 4 mph ()    
Max Wind Speed 9 mph    
Max Gust Speed -    
Visibility 7.3 miles    
Events      
Averages and records for this station are not official NWS values.
T = Trace of Precipitation, MM = Missing Value Source: Averaged Metar Reports

Daily Weather History Graph

Daily Weather History Graph

Search for Another Location

Airport or City:

Trip Planner

Search our weather history database for the weather conditions in past years. The results will help you decide how hot, cold, wet, or windy it might be!

Date:

Astronomy

Sep. 23, 2012 Rise Set
Actual Time 6:36 AM EEST 6:43 PM EEST
Civil Twilight 6:09 AM EEST 7:10 PM EEST
Nautical Twilight 5:37 AM EEST 7:41 PM EEST
Astronomical Twilight 5:05 AM EEST 8:13 PM EEST
Moon 2:27 PM EEST (9/23) No Moon Set
Length of Visible Light 13h 00m
Length of Day
12h 06m
First Quarter, 56% of the Moon is Illuminated
Sep 23
First Quarter
Sep 30
Full
Oct 8
Last Quarter
Oct 15
New
Oct 22
First Quarter

Hourly Weather History & Observations

Time (EEST) Temp. Windchill Dew Point Humidity Pressure Visibility Wind Dir Wind Speed Gust Speed Precip Events Conditions
12:20 AM 53.6 °F - 41.0 °F 62% 30.09 in - East 3.5 mph - N/A   Clear
12:50 AM 51.8 °F - 39.2 °F 62% 30.12 in - WSW 3.5 mph - N/A   Clear
1:20 AM 50.0 °F - 39.2 °F 66% 30.12 in - Variable 2.3 mph - N/A   Clear
1:50 AM 50.0 °F - 39.2 °F 66% 30.12 in - ENE 3.5 mph - N/A   Clear
2:20 AM 48.2 °F - 39.2 °F 71% 30.12 in - ENE 3.5 mph - N/A   Clear
2:50 AM 48.2 °F - 39.2 °F 71% 30.12 in - NE 3.5 mph - N/A   Clear
3:00 AM 48 °F - 39 °F 61% 30.07 in 12 mi NE 3.5 mph - -  
3:20 AM 46.4 °F - 39.2 °F 76% 30.15 in - South 2.3 mph - N/A   Clear
3:50 AM 50.0 °F - 39.2 °F 66% 30.15 in - Variable 2.3 mph - N/A   Clear
4:20 AM 46.4 °F - 37.4 °F 71% 30.15 in - Variable 2.3 mph - N/A   Clear
4:50 AM 46.4 °F - 37.4 °F 71% 30.15 in - Variable 2.3 mph - N/A   Clear
5:20 AM 44.6 °F - 37.4 °F 76% 30.15 in - Variable 1.2 mph - N/A   Clear
5:50 AM 41.0 °F - 37.4 °F 87% 30.15 in - Variable 1.2 mph - N/A   Clear
6:20 AM 44.6 °F - 37.4 °F 76% 30.15 in - NNE 2.3 mph - N/A   Clear
6:50 AM 42.8 °F 40.1 °F 35.6 °F 76% 30.15 in - NE 4.6 mph - N/A   Clear
7:20 AM 42.8 °F 41.1 °F 35.6 °F 76% 30.18 in - North 3.5 mph - N/A   Clear
7:50 AM 46.4 °F - 35.6 °F 66% 30.18 in - Variable 2.3 mph - N/A   Clear
8:20 AM 48.2 °F - 37.4 °F 66% 30.18 in - Variable 1.2 mph - N/A   Clear
8:50 AM 51.8 °F - 39.2 °F 62% 30.21 in - Variable 2.3 mph - N/A   Clear
9:00 AM 52 °F - 38 °F 48% 30.17 in 12 mi South 2.3 mph - -  
9:20 AM 55.4 °F - 41.0 °F 58% 30.21 in - Variable 2.3 mph - N/A   Clear
9:50 AM 57.2 °F - 41.0 °F 55% 30.21 in - Variable 3.5 mph - N/A   Clear
10:20 AM 59.0 °F - 42.8 °F 55% 30.18 in - SSW 3.5 mph - N/A   Clear
10:50 AM 62.6 °F - 42.8 °F 48% 30.18 in - South 3.5 mph - N/A   Clear
11:20 AM 62.6 °F - 41.0 °F 45% 30.18 in - Variable 3.5 mph - N/A   Clear
11:50 AM 64.4 °F - 41.0 °F 42% 30.18 in - Variable 3.5 mph - N/A   Clear
12:20 PM 66.2 °F - 41.0 °F 40% 30.18 in 6.2 mi Variable 5.8 mph - N/A   Partly Cloudy
12:50 PM 68.0 °F - 41.0 °F 37% 30.15 in 6.2 mi Variable 3.5 mph - N/A   Partly Cloudy
1:20 PM 69.8 °F - 41.0 °F 35% 30.15 in 6.2 mi Variable 4.6 mph - N/A   Partly Cloudy
1:50 PM 69.8 °F - 41.0 °F 35% 30.15 in 6.2 mi NNW 5.8 mph - N/A   Partly Cloudy
2:20 PM 71.6 °F - 41.0 °F 33% 30.12 in 6.2 mi NW 5.8 mph - N/A   Partly Cloudy
2:50 PM 73.4 °F - 41.0 °F 31% 30.12 in 6.2 mi WNW 8.1 mph - N/A   Partly Cloudy
3:00 PM 73 °F - 40 °F 19% 30.05 in 12 mi WNW 8.1 mph - -   Scattered Clouds
3:20 PM 71.6 °F - 39.2 °F 31% 30.12 in 6.2 mi WSW 6.9 mph - N/A   Partly Cloudy
3:50 PM 73.4 °F - 39.2 °F 29% 30.09 in 6.2 mi NW 5.8 mph - N/A   Partly Cloudy
4:20 PM 73.4 °F - 39.2 °F 29% 30.09 in 6.2 mi Variable 5.8 mph - N/A   Partly Cloudy
4:50 PM 73.4 °F - 39.2 °F 29% 30.09 in 6.2 mi Variable 4.6 mph - N/A   Partly Cloudy
5:20 PM 73.4 °F - 39.2 °F 29% 30.09 in 6.2 mi Variable 2.3 mph - N/A   Partly Cloudy
5:50 PM 75.2 °F - 39.2 °F 27% 30.09 in 6.2 mi Variable 1.2 mph - N/A   Partly Cloudy
6:20 PM 73.4 °F - 39.2 °F 29% 30.09 in 6.2 mi Variable 1.2 mph - N/A   Partly Cloudy
6:50 PM 69.8 °F - 39.2 °F 33% 30.09 in 6.2 mi Variable 2.3 mph - N/A   Partly Cloudy
7:20 PM 69.8 °F - 39.2 °F 33% 30.12 in 6.2 mi Variable 3.5 mph - N/A   Partly Cloudy
7:50 PM 66.2 °F - 39.2 °F 37% 30.12 in 6.2 mi East 8.1 mph - N/A   Partly Cloudy
8:20 PM 66.2 °F - 39.2 °F 37% 30.15 in 6.2 mi NNE 9.2 mph - N/A   Partly Cloudy
8:50 PM 62.6 °F - 39.2 °F 42% 30.15 in 6.2 mi NNE 9.2 mph - N/A   Partly Cloudy
9:00 PM 62 °F - 39 °F 31% 30.10 in 12 mi NNE 9.2 mph - -   Scattered Clouds
9:20 PM 60.8 °F - 39.2 °F 45% 30.15 in - NNE 8.1 mph - N/A   Clear
9:50 PM 59.0 °F - 39.2 °F 48% 30.15 in - North 5.8 mph - N/A   Clear
10:20 PM 59.0 °F - 39.2 °F 48% 30.15 in - NNE 9.2 mph - N/A   Clear
10:50 PM 57.2 °F - 39.2 °F 51% 30.15 in - NNE 9.2 mph - N/A   Clear
11:20 PM 59.0 °F - 39.2 °F 48% 30.15 in - NE 5.8 mph - N/A   Clear
11:50 PM 57.2 °F - 39.2 °F 51% 30.15 in - NE 4.6 mph - N/A   Clear